Stockholm Bromma, Sweden

2:19 PM CEST on June 23, 2018 (GMT +0200)
Bromma

Weather History for ESSB - October, 2017

Change the Weather History Date:

Friday, October 13, 2017

  Actual Average Record
Temperature  
Mean Temperature 46 °F -  
Max Temperature 48 °F 44 °F 60 °F (2001)
Min Temperature 44 °F 35 °F 26 °F (2007)
Degree Days  
Heating Degree Days 19    
Moisture  
Dew Point 42 °F    
Average Humidity 84    
Maximum Humidity 100    
Minimum Humidity 68    
Precipitation  
Precipitation 0.00 in - - ()
Sea Level Pressure  
Sea Level Pressure 29.84 in    
Wind  
Wind Speed 11 mph ()    
Max Wind Speed 20 mph    
Max Gust Speed 32 mph    
Visibility 5.7 miles    
Events Rain    
Averages and records for this station are not official NWS values.
T = Trace of Precipitation, MM = Missing Value Source: Averaged Metar Reports

Daily Weather History Graph

Daily Weather History Graph

Search for Another Location

Airport or City:

Astronomy

Oct. 13, 2017 Rise Set
Actual Time 7:21 AM CEST 5:46 PM CEST
Civil Twilight 6:40 AM CEST 6:27 PM CEST
Nautical Twilight 5:53 AM CEST 7:14 PM CEST
Astronomical Twilight 5:05 AM CEST 8:02 PM CEST
Moon 11:58 PM CEST (10/13) 3:51 PM CEST (10/13)
Length of Visible Light 11h 47m
Length of Day
10h 24m
Last Quarter, 40% of the Moon is Illuminated
Oct 13
Last Quarter
Oct 19
New
Oct 28
First Quarter
Nov 4
Full
Nov 10
Last Quarter

Hourly Weather History & Observations

Time (CEST) Temp. Windchill Dew Point Humidity Pressure Visibility Wind Dir Wind Speed Gust Speed Precip Events Conditions
12:00 AM 48 °F - 47 °F 97% 29.33 in 2 mi West 11.2 mph - - Rain Light Rain Showers
12:20 AM 48.2 °F - 48.2 °F 100% 29.33 in 1.2 mi West 11.5 mph - N/A   Overcast
12:50 AM 48.2 °F - 48.2 °F 100% 29.36 in 1.5 mi NW 13.8 mph - N/A Rain Light Rain
1:00 AM 49 °F - 48 °F 97% 29.37 in 1 mi NW 13.4 mph - - Rain Light Rain Showers
1:20 AM 48.2 °F - 48.2 °F 100% 29.39 in 1.4 mi NW 17.3 mph - N/A   Drizzle
1:50 AM 48.2 °F - 48.2 °F 100% 29.42 in - NNW 19.6 mph - N/A Rain Rain
2:00 AM 48 °F - 47 °F 94% 29.45 in 4 mi NNW 17.9 mph - - Rain Light Rain Showers
2:50 AM 46.4 °F 39.2 °F 46.4 °F 100% 29.50 in - NNW 18.4 mph 31.1 mph N/A   Small Hail
3:00 AM 47 °F - 45 °F 89% 29.54 in 17 mi NNW 15.7 mph - - Rain Light Rain Showers
3:20 AM 46.4 °F 39.5 °F 44.6 °F 93% 29.56 in 6.2 mi North 17.3 mph 32.2 mph N/A   Overcast
3:50 AM 46.4 °F 40.7 °F 44.6 °F 93% 29.59 in 6.2 mi NW 12.7 mph - N/A   Overcast
4:00 AM 46 °F - 45 °F 94% 29.61 in 7 mi NNW 13.4 mph - -   Mist
4:20 AM 46.4 °F 39.8 °F 44.6 °F 93% 29.62 in 6.2 mi NNW 16.1 mph - N/A   Overcast
4:50 AM 46.4 °F 40.4 °F 44.6 °F 93% 29.65 in 5.6 mi NNW 13.8 mph - N/A   Overcast
5:00 AM 46 °F - 44 °F 89% 29.68 in 4 mi NW 15.7 mph - -   Mist
5:20 AM 46.4 °F 40.1 °F 42.8 °F 87% 29.68 in 6.2 mi NW 15.0 mph - N/A   Overcast
5:50 AM 46.4 °F 40.1 °F 42.8 °F 87% 29.71 in 6.2 mi NW 15.0 mph - N/A   Mostly Cloudy
6:00 AM 45 °F - 43 °F 90% 29.74 in 2 mi NW 15.7 mph - -   Mist
6:20 AM 44.6 °F 37.8 °F 41.0 °F 87% 29.74 in 6.2 mi NNW 15.0 mph - N/A   Overcast
6:50 AM 44.6 °F 38.1 °F 41.0 °F 87% 29.77 in 6.2 mi NW 13.8 mph - N/A   Overcast
7:00 AM 45 °F - 40 °F 78% 29.80 in 31 mi NW 11.2 mph - -   Mostly Cloudy
7:20 AM 44.6 °F 38.1 °F 41.0 °F 87% 29.80 in 6.2 mi NW 13.8 mph - N/A   Overcast
7:50 AM 44.6 °F 38.4 °F 41.0 °F 87% 29.83 in 6.2 mi NW 12.7 mph - N/A   Mostly Cloudy
8:00 AM 44 °F - 40 °F 79% 29.84 in 31 mi NW 11.2 mph - -   Scattered Clouds
8:20 AM 44.6 °F 38.8 °F 39.2 °F 81% 29.83 in 6.2 mi NW 11.5 mph - N/A   Scattered Clouds
8:50 AM 44.6 °F 39.2 °F 39.2 °F 81% 29.86 in 6.2 mi NW 10.4 mph - N/A   Scattered Clouds
9:00 AM 44 °F - 40 °F 81% 29.87 in 28 mi NW 8.9 mph - -   Scattered Clouds
9:20 AM 44.6 °F 39.2 °F 41.0 °F 87% 29.86 in 6.2 mi NW 10.4 mph - N/A   Scattered Clouds
9:50 AM 46.4 °F 41.9 °F 41.0 °F 81% 29.89 in 6.2 mi NW 9.2 mph - N/A   Mostly Cloudy
10:00 AM 46 °F - 40 °F 74% 29.91 in 31 mi NW 11.2 mph - -   Partly Cloudy
10:20 AM 46.4 °F 41.5 °F 41.0 °F 81% 29.89 in 6.2 mi NW 10.4 mph - N/A   Mostly Cloudy
10:50 AM 46.4 °F 42.4 °F 41.0 °F 81% 29.89 in 6.2 mi NW 8.1 mph - N/A   Mostly Cloudy
11:00 AM 46 °F - 40 °F 74% 29.92 in 28 mi NW 8.9 mph - -   Overcast
11:20 AM 46.4 °F 42.4 °F 41.0 °F 81% 29.92 in 6.2 mi NW 8.1 mph - N/A   Mostly Cloudy
11:50 AM 46.4 °F 40.7 °F 41.0 °F 81% 29.95 in 6.2 mi NW 12.7 mph - N/A   Mostly Cloudy
12:00 PM 47 °F - 41 °F 72% 29.96 in 28 mi WNW 11.2 mph - -   Mostly Cloudy
12:20 PM 48.2 °F - 41.0 °F 76% 29.95 in 6.2 mi NW 11.5 mph - N/A   Mostly Cloudy
12:50 PM 46.4 °F 41.1 °F 42.8 °F 87% 29.95 in 6.2 mi WNW 11.5 mph - N/A   Mostly Cloudy
1:50 PM 48.2 °F - 41.0 °F 76% 29.98 in 6.2 mi NW 11.5 mph - N/A   Mostly Cloudy
2:00 PM 47 °F - 40 °F 70% 30.00 in 28 mi WNW 13.4 mph - -   Partly Cloudy
2:20 PM 46.4 °F 40.4 °F 41.0 °F 81% 30.01 in 6.2 mi WNW 13.8 mph - N/A   Mostly Cloudy
2:50 PM 46.4 °F 41.1 °F 41.0 °F 81% 30.01 in 6.2 mi WNW 11.5 mph - N/A   Mostly Cloudy
3:00 PM 47 °F - 40 °F 70% 30.02 in 31 mi WNW 6.7 mph - -   Scattered Clouds
3:20 PM 48.2 °F - 41.0 °F 76% 30.01 in 6.2 mi WNW 11.5 mph - N/A   Mostly Cloudy
3:50 PM 48.2 °F - 41.0 °F 76% 30.01 in 6.2 mi NW 8.1 mph - N/A   Mostly Cloudy
4:00 PM 47 °F - 40 °F 69% 30.02 in 28 mi WNW 6.7 mph - -   Scattered Clouds
4:20 PM 48.2 °F - 41.0 °F 76% 30.01 in 6.2 mi WNW 6.9 mph - N/A   Mostly Cloudy
4:50 PM 46.4 °F 42.9 °F 39.2 °F 76% 30.01 in 6.2 mi WNW 6.9 mph - N/A   Mostly Cloudy
5:00 PM 47 °F - 40 °F 68% 30.04 in 31 mi West 4.5 mph - -   Overcast
5:20 PM 46.4 °F 43.5 °F 39.2 °F 76% 30.04 in 6.2 mi West 5.8 mph - N/A   Mostly Cloudy
5:50 PM 46.4 °F 45.2 °F 39.2 °F 76% 30.01 in 6.2 mi West 3.5 mph - N/A   Partly Cloudy
6:00 PM 45 °F - 40 °F 78% 30.03 in 31 mi Calm Calm - -   Overcast
6:50 PM 44.6 °F - 41.0 °F 87% 30.01 in - SSW 1.2 mph - N/A   Clear
7:00 PM 45 °F - 41 °F 81% 30.03 in 31 mi SSW 2.2 mph - -   Overcast
7:20 PM 44.6 °F 43.1 °F 41.0 °F 87% 30.01 in - SSW 3.5 mph - N/A   Clear
7:50 PM 44.6 °F 43.1 °F 41.0 °F 87% 30.01 in - South 3.5 mph - N/A   Clear
8:00 PM 45 °F - 42 °F 83% 30.02 in 31 mi South 4.5 mph - -   Overcast
8:20 PM 44.6 °F 43.1 °F 41.0 °F 87% 30.01 in - SSW 3.5 mph - N/A   Clear
8:50 PM 44.6 °F 43.1 °F 41.0 °F 87% 30.01 in - Variable 3.5 mph - N/A   Clear
9:00 PM 46 °F - 40 °F 72% 30.03 in 31 mi South 4.5 mph - -   Overcast
9:20 PM 46.4 °F 45.2 °F 39.2 °F 76% 30.01 in - South 3.5 mph - N/A   Clear
9:50 PM 44.6 °F 43.1 °F 39.2 °F 81% 30.01 in - Variable 3.5 mph - N/A   Clear
10:00 PM 45 °F - 40 °F 75% 30.02 in 31 mi SSE 4.5 mph - - Rain Light Drizzle
10:20 PM 44.6 °F 42.2 °F 39.2 °F 81% 30.01 in 6.2 mi SSE 4.6 mph - N/A   Light Drizzle
10:50 PM 44.6 °F 42.2 °F 41.0 °F 87% 29.98 in 6.2 mi SSE 4.6 mph - N/A   Drizzle
11:00 PM 45 °F - 40 °F 78% 30.00 in 22 mi SSE 4.5 mph - - Rain Light Rain
11:20 PM 44.6 °F 42.2 °F 41.0 °F 87% 29.98 in 6.2 mi SSE 4.6 mph - N/A Rain Light Rain
11:50 PM 44.6 °F 41.4 °F 42.8 °F 93% 29.98 in 6.2 mi SSE 5.8 mph - N/A Rain Light Rain